| time (UTC) | temp F | wind direction | speed knots | gust knots | rain 1hr in | rain 24hr in | rain mn in | humidity % | barometer mb |
| 20260906113001 | 66 | 360 | 0.0 | 0.0 | 0.00 | 0.00 | 0.00 | 96 | 1016.7 |
| 20260906111559 | 66 | 360 | 0.0 | 0.0 | 0.00 | 0.00 | 0.00 | 96 | 1016.5 |
| 20260906110057 | 66 | 360 | 0.0 | 0.0 | 0.00 | 0.00 | 0.00 | 96 | 1016.3 |
| 20260906104557 | 66 | 360 | 0.0 | 0.0 | 0.00 | 0.00 | 0.00 | 96 | 1016.1 |
| 20260906103055 | 67 | 360 | 0.0 | 0.0 | 0.00 | 0.00 | 0.00 | 96 | 1015.9 |
| 20260906101552 | 67 | 360 | 0.0 | 0.0 | 0.00 | 0.00 | 0.00 | 96 | 1016.0 |
| 20260906100051 | 67 | 360 | 0.0 | 0.0 | 0.00 | 0.00 | 0.00 | 96 | 1015.7 |
| 20260906094602 | 68 | 360 | 0.0 | 0.0 | 0.00 | 0.00 | 0.00 | 96 | 1015.7 |
| 20260906093050 | 68 | 360 | 0.0 | 0.0 | 0.00 | 0.00 | 0.00 | 96 | 1015.6 |
| 20260906091600 | 69 | 360 | 0.0 | 0.0 | 0.00 | 0.00 | 0.00 | 96 | 1015.6 |
| 20260906090045 | 69 | 360 | 0.0 | 0.0 | 0.00 | 0.00 | 0.00 | 96 | 1015.6 |
| 20260906084542 | 70 | 360 | 0.0 | 1.7 | 0.00 | 0.00 | 0.00 | 96 | 1015.5 |
| 20260906083041 | 70 | 360 | 0.9 | 2.6 | 0.00 | 0.00 | 0.00 | 95 | 1015.7 |
| 20260906081543 | 70 | 360 | 0.9 | 1.7 | 0.00 | 0.00 | 0.00 | 95 | 1015.7 |
| 20260906080041 | 71 | 360 | 1.7 | 2.6 | 0.00 | 0.00 | 0.00 | 95 | 1015.5 |
| 20260906074546 | 71 | 360 | 1.7 | 3.5 | 0.00 | 0.00 | 0.00 | 95 | 1015.5 |
| 20260906073040 | 71 | 360 | 1.7 | 3.5 | 0.00 | 0.00 | 0.00 | 95 | 1015.6 |
| 20260906071536 | 71 | 360 | 1.7 | 3.5 | 0.00 | 0.00 | 0.00 | 95 | 1015.8 |
| 20260906070035 | 71 | 360 | 0.9 | 2.6 | 0.00 | 0.00 | 0.00 | 95 | 1015.7 |
| 20260906064536 | 71 | 360 | 0.9 | 2.6 | 0.00 | 0.00 | 0.00 | 95 | 1015.7 |
| 20260906063037 | 71 | 360 | 0.9 | 2.6 | 0.00 | 0.00 | 0.00 | 94 | 1015.8 |
| 20260906061533 | 71 | 360 | 0.9 | 2.6 | 0.00 | 0.00 | 0.00 | 94 | 1015.7 |
| 20260906060032 | 71 | 360 | 1.7 | 3.5 | 0.00 | 0.00 | 0.00 | 94 | 1015.7 |
| 20260906054539 | 71 | 360 | 1.7 | 5.2 | 0.00 | 0.00 | 0.00 | 94 | 1015.6 |
| 20260906053029 | 71 | 360 | 2.6 | 4.3 | 0.00 | 0.00 | 0.00 | 93 | 1015.5 |
| 20260906051528 | 71 | 360 | 1.7 | 3.5 | 0.00 | 0.00 | 0.00 | 94 | 1015.5 |
| 20260906050023 | 70 | 360 | 1.7 | 2.6 | 0.00 | 0.00 | 0.00 | 94 | 1015.3 |
| 20260906044522 | 70 | 360 | 0.9 | 2.6 | 0.00 | 0.00 | 0.00 | 93 | 1015.2 |
| 20260906043029 | 71 | 360 | 1.7 | 2.6 | 0.00 | 0.00 | 0.00 | 92 | 1014.8 |
| 20260906041519 | 71 | 360 | 0.9 | 3.5 | 0.00 | 0.00 | 0.00 | 92 | 1014.7 |
| 20260906040019 | 71 | 360 | 2.6 | 5.2 | 0.00 | 0.00 | 0.00 | 91 | 1014.7 |
| 20260906034519 | 71 | 360 | 2.6 | 5.2 | 0.00 | 0.00 | 0.00 | 91 | 1014.8 |
| 20260906033023 | 71 | 360 | 3.5 | 8.7 | 0.00 | 0.00 | 0.00 | 91 | 1014.8 |
| 20260906031517 | 71 | 360 | 4.3 | 7.8 | 0.00 | 0.00 | 0.00 | 92 | 1014.6 |
| 20260906030020 | 70 | 360 | 4.3 | 7.8 | 0.00 | 0.00 | 0.00 | 92 | 1014.7 |
| 20260906024512 | 71 | 360 | 4.3 | 7.8 | 0.00 | 0.00 | 0.00 | 92 | 1014.7 |
| 20260906023011 | 71 | 360 | 3.5 | 7.0 | 0.00 | 0.00 | 0.00 | 93 | 1014.4 |
| 20260906021508 | 71 | 360 | 3.5 | 5.2 | 0.00 | 0.00 | 0.00 | 93 | 1014.3 |
| 20260906020010 | 71 | 360 | 2.6 | 4.3 | 0.00 | 0.00 | 0.00 | 93 | 1014.2 |
| 20260906014507 | 72 | 360 | 1.7 | 3.5 | 0.00 | 0.00 | 0.00 | 92 | 1014.2 |
| 20260906013003 | 72 | 360 | 1.7 | 3.5 | 0.00 | 0.00 | 0.00 | 92 | 1014.1 |
| 20260906011608 | 73 | 360 | 1.7 | 4.3 | 0.00 | 0.00 | 0.00 | 91 | 1014.0 |
| 20260906010059 | 73 | 360 | 1.7 | 3.5 | 0.00 | 0.00 | 0.00 | 91 | 1014.0 |
| 20260906004604 | 74 | 360 | 1.7 | 3.5 | 0.00 | 0.00 | 0.00 | 90 | 1013.8 |
| 20260906003102 | 75 | 360 | 0.9 | 3.5 | 0.00 | 0.00 | 0.00 | 89 | 1013.6 |
| 20260906001555 | 76 | 360 | 0.9 | 3.5 | 0.00 | 0.00 | 0.00 | 87 | 1013.5 |
| 20260906000058 | 77 | 360 | 2.6 | 4.3 | 0.00 | 0.00 | 0.00 | 86 | 1013.4 |
| 20260905234552 | 78 | 360 | 3.5 | 7.0 | 0.00 | 0.00 | 0.00 | 85 | 1013.4 |
| 20260905233052 | 79 | 360 | 2.6 | 5.2 | 0.00 | 0.00 | 0.00 | 84 | 1013.2 |
| 20260905231553 | 80 | 360 | 2.6 | 5.2 | 0.00 | 0.00 | 0.00 | 83 | 1013.0 |
| 20260905230054 | 81 | 360 | 2.6 | 5.2 | 0.00 | 0.00 | 0.00 | 83 | 1012.9 |
| 20260905224553 | 82 | 360 | 2.6 | 5.2 | 0.00 | 0.00 | 0.00 | 82 | 1013.0 |
| 20260905223050 | 82 | 360 | 3.5 | 8.7 | 0.00 | 0.00 | 0.00 | 80 | 1012.8 |
| 20260905221552 | 83 | 53 | 3.5 | 8.7 | 0.00 | 0.00 | 0.00 | 79 | 1012.7 |
| 20260905220049 | 84 | 40 | 4.3 | 9.6 | 0.00 | 0.00 | 0.00 | 79 | 1012.5 |
| 20260905214548 | 85 | 52 | 4.3 | 8.7 | 0.00 | 0.00 | 0.00 | 77 | 1012.6 |
| 20260905213048 | 86 | 40 | 3.5 | 7.8 | 0.00 | 0.00 | 0.00 | 77 | 1012.3 |
| 20260905211552 | 88 | 42 | 5.2 | 8.7 | 0.00 | 0.00 | 0.00 | 74 | 1012.2 |
| 20260905210050 | 89 | 53 | 4.3 | 7.8 | 0.00 | 0.00 | 0.00 | 74 | 1012.2 |
| 20260905204547 | 89 | 31 | 6.1 | 11.3 | 0.00 | 0.00 | 0.00 | 73 | 1012.2 |
| 20260905203046 | 88 | 17 | 3.5 | 11.3 | 0.00 | 0.00 | 0.00 | 74 | 1012.3 |
| 20260905201545 | 89 | 11 | 3.5 | 9.6 | 0.00 | 0.00 | 0.00 | 75 | 1012.4 |
| 20260905200044 | 89 | 11 | 2.6 | 7.8 | 0.00 | 0.00 | 0.00 | 73 | 1012.3 |
| 20260905194543 | 89 | 322 | 2.6 | 7.8 | 0.00 | 0.00 | 0.00 | 74 | 1012.3 |
| 20260905193043 | 90 | 12 | 2.6 | 7.0 | 0.00 | 0.00 | 0.00 | 73 | 1012.4 |
| 20260905191542 | 90 | 26 | 2.6 | 7.8 | 0.00 | 0.00 | 0.00 | 74 | 1012.3 |
| 20260905190041 | 89 | 31 | 1.7 | 7.8 | 0.00 | 0.00 | 0.00 | 77 | 1012.4 |
| 20260905184557 | 89 | 28 | 3.5 | 7.8 | 0.00 | 0.00 | 0.00 | 76 | 1012.6 |
| 20260905183047 | 89 | 21 | 1.7 | 5.2 | 0.00 | 0.00 | 0.00 | 78 | 1012.7 |
| 20260905181547 | 89 | 34 | 3.5 | 8.7 | 0.00 | 0.00 | 0.00 | 77 | 1012.8 |
| 20260905180043 | 89 | 322 | 1.7 | 7.8 | 0.00 | 0.00 | 0.00 | 77 | 1012.8 |
| 20260905174538 | 89 | 31 | 1.7 | 8.7 | 0.00 | 0.00 | 0.00 | 76 | 1012.7 |
| 20260905173038 | 90 | 30 | 2.6 | 7.0 | 0.00 | 0.00 | 0.00 | 75 | 1012.8 |
| 20260905171540 | 90 | 28 | 1.7 | 7.0 | 0.00 | 0.00 | 0.00 | 75 | 1012.8 |
| 20260905170035 | 89 | 25 | 3.5 | 8.7 | 0.00 | 0.00 | 0.00 | 76 | 1013.0 |
| 20260905164534 | 89 | 360 | 3.5 | 10.4 | 0.00 | 0.00 | 0.00 | 77 | 1013.1 |
| 20260905163030 | 88 | 360 | 2.6 | 7.0 | 0.00 | 0.00 | 0.00 | 76 | 1013.1 |
| 20260905161529 | 87 | 360 | 2.6 | 7.0 | 0.00 | 0.00 | 0.00 | 78 | 1013.0 |
| 20260905160028 | 87 | 360 | 1.7 | 7.0 | 0.00 | 0.00 | 0.00 | 81 | 1013.0 |
| 20260905154523 | 86 | 34 | 1.7 | 5.2 | 0.00 | 0.00 | 0.00 | 83 | 1013.1 |
| 20260905153021 | 86 | 36 | 1.7 | 5.2 | 0.00 | 0.00 | 0.00 | 83 | 1013.0 |
| 20260905151523 | 86 | 23 | 1.7 | 5.2 | 0.00 | 0.00 | 0.00 | 83 | 1013.0 |
| 20260905150017 | 85 | 26 | 2.6 | 5.2 | 0.00 | 0.00 | 0.00 | 83 | 1013.0 |
| 20260905144513 | 84 | 360 | 1.7 | 3.5 | 0.00 | 0.00 | 0.00 | 83 | 1012.8 |
| 20260905143010 | 83 | 360 | 0.9 | 3.5 | 0.00 | 0.00 | 0.00 | 86 | 1012.8 |
| 20260905141507 | 82 | 360 | 1.7 | 3.5 | 0.00 | 0.00 | 0.00 | 86 | 1012.5 |
| 20260905140005 | 81 | 360 | 0.9 | 2.6 | 0.00 | 0.00 | 0.00 | 88 | 1012.6 |
| 20260905134600 | 80 | 360 | 0.9 | 3.5 | 0.00 | 0.00 | 0.00 | 90 | 1013.0 |
| 20260905133056 | 79 | 360 | 0.0 | 1.7 | 0.00 | 0.00 | 0.00 | 91 | 1013.0 |
| 20260905131553 | 78 | 360 | 1.7 | 3.5 | 0.00 | 0.00 | 0.00 | 93 | 1012.8 |
| 20260905130052 | 77 | 360 | 1.7 | 3.5 | 0.00 | 0.00 | 0.00 | 94 | 1012.6 |
| 20260905124551 | 76 | 360 | 0.9 | 3.5 | 0.00 | 0.00 | 0.00 | 95 | 1012.5 |
| 20260905123056 | 76 | 360 | 0.0 | 1.7 | 0.00 | 0.00 | 0.00 | 95 | 1012.5 |
| 20260905121550 | 75 | 360 | 0.0 | 2.6 | 0.00 | 0.00 | 0.00 | 96 | 1012.4 |
| 20260905120050 | 74 | 360 | 0.0 | 3.5 | 0.00 | 0.00 | 0.00 | 96 | 1012.1 |
| 20260905114549 | 74 | 360 | 1.7 | 3.5 | 0.00 | 0.00 | 0.00 | 96 | 1011.9 |